This is the latest recevied weather packets stored in our database for station/object WX7FGZ-5. If no packets are shown the sender has not sent any weather packets the latest 10 day(s).
| Time | Temp. | Humidity | Pressure | Rain* | Wind** | Luminosity | Snow |
|---|---|---|---|---|---|---|---|
| 1788140206 | 68° F | 69% | 770.4 mmHg | 0 in | - | 14 W/m² | - |
| 1788139899 | 68° F | 68% | 770.3 mmHg | 0 in | - | 16 W/m² | - |
| 1788139349 | 68° F | 68% | 770.4 mmHg | 0 in | - | 23 W/m² | - |
| 1788139039 | 68° F | 68% | 770.5 mmHg | 0 in | - | 23 W/m² | - |
| 1788137838 | 69° F | 67% | 770.2 mmHg | 0 in | - | 46 W/m² | - |
| 1788136937 | 69° F | 66% | 770.2 mmHg | 0 in | - | 69 W/m² | - |
| 1788136636 | 70° F | 65% | 770.2 mmHg | 0 in | - | 83 W/m² | - |
| 1788135738 | 70° F | 63% | 770.4 mmHg | 0 in | - | 67 W/m² | - |
| 1788135438 | 71° F | 62% | 770.4 mmHg | 0 in | - | 58 W/m² | - |
| 1788134843 | 71° F | 60% | 770.4 mmHg | 0 in | - | 53 W/m² | - |
| 1788134548 | 71° F | 60% | 770.3 mmHg | 0 in | - | 53 W/m² | - |
| 1788134238 | 72° F | 59% | 770.4 mmHg | 0 in | - | 56 W/m² | - |
| 1788133991 | 72° F | 58% | 770.3 mmHg | 0 in | - | 65 W/m² | - |
| 1788133938 | 72° F | 58% | 770.3 mmHg | 0 in | - | 65 W/m² | - |
| 1788133640 | 71° F | 59% | 770.4 mmHg | 0 in | - | 86 W/m² | - |
| 1788133037 | 72° F | 57% | 770.5 mmHg | 0 in | - | 104 W/m² | - |
| 1788132139 | 72° F | 57% | 770.6 mmHg | 0 in | - | 146 W/m² | - |
| 1788130937 | 72° F | 57% | 770.5 mmHg | 0 in | - | 135 W/m² | - |
| 1788130637 | 73° F | 56% | 770.5 mmHg | 0 in | - | 185 W/m² | - |
| 1788130336 | 72° F | 56% | 770.6 mmHg | 0 in | - | 213 W/m² | - |
| 1788130043 | 73° F | 54% | 770.7 mmHg | 0 in | - | 385 W/m² | - |
| 1788129737 | 72° F | 53% | 770.8 mmHg | 0 in | - | 388 W/m² | - |
| 1788129438 | 72° F | 51% | 770.9 mmHg | 0 in | - | 195 W/m² | - |
| 1788128853 | 73° F | 54% | 770.8 mmHg | 0 in | - | 132 W/m² | - |
| 1788128546 | 73° F | 56% | 770.8 mmHg | 0 in | - | 348 W/m² | - |
* Rain latest hour (hover to see other rain measurements)
** Current wind speed in m/s (hover to see current wind gust speed)